Location: Brantley
(31.5822°N, 86.2569°W)
Time: 21:16:47
(UTC+00:00)

Injun/Solrad 3 - Pass Details

Date: 16 February 2026
Orbit: 872 x 984 km, 66.8° (Epoch: 8 March)

Event Time Altitude Azimuth Distance (km) Brightness Sun altitude
Rises 17:31:23 0° 226° (SW) 3,446 11.2 45.8°
Reaches altitude 10° 17:34:01 10° 234° (SW) 2,511 10.6 45.9°
Maximum altitude 17:39:21 37° 301° (WNW) 1,323 8.9 46.0°
Drops below altitude 10° 17:44:46 10° 8° (N) 2,549 9.9 46.1°
Sets 17:47:29 0° 17° (NNE) 3,505 10.5 46.2°
